| time (UTC) | temp F | wind direction | speed MPH | gust MPH | rain 1hr in | rain 24hr in | rain mn in | humidity % | barometer mb |
| 20260901022015 | 80 | 189 | 0.0 | 1.0 | 0.00 | 0.01 | 0.01 | 88 | 1019.4 |
| 20260901021514 | 80 | 189 | 0.0 | 1.0 | 0.00 | 0.01 | 0.01 | 88 | 1019.4 |
| 20260901020516 | 80 | 189 | 0.0 | 2.0 | 0.00 | 0.01 | 0.01 | 88 | 1019.4 |
| 20260901020013 | 80 | 189 | 0.0 | 1.0 | 0.00 | 0.01 | 0.01 | 88 | 1019.2 |
| 20260901015002 | 80 | 189 | 0.0 | 1.0 | 0.00 | 0.01 | 0.01 | 88 | 1019.0 |
| 20260901014503 | 80 | 189 | 0.0 | 1.0 | 0.00 | 0.01 | 0.01 | 87 | 1019.0 |
| 20260901014002 | 80 | 189 | 0.0 | 0.0 | 0.00 | 0.01 | 0.01 | 87 | 1018.9 |
| 20260901013505 | 80 | 189 | 0.0 | 0.0 | 0.00 | 0.01 | 0.01 | 87 | 1018.8 |
| 20260901013001 | 80 | 189 | 0.0 | 0.0 | 0.00 | 0.01 | 0.01 | 87 | 1018.7 |
| 20260901011504 | 81 | 189 | 0.0 | 1.0 | 0.00 | 0.01 | 0.01 | 86 | 1018.5 |
| 20260901010502 | 81 | 189 | 0.0 | 1.0 | 0.00 | 0.01 | 0.01 | 85 | 1018.5 |
| 20260901010001 | 81 | 189 | 0.0 | 1.0 | 0.00 | 0.01 | 0.01 | 85 | 1018.4 |
| 20260901005458 | 82 | 189 | 0.0 | 2.0 | 0.00 | 0.01 | 0.01 | 84 | 1018.4 |
| 20260901004959 | 82 | 189 | 0.0 | 2.0 | 0.00 | 0.01 | 0.01 | 84 | 1018.3 |
| 20260901004454 | 82 | 189 | 0.0 | 1.0 | 0.00 | 0.01 | 0.01 | 83 | 1018.3 |
| 20260901003954 | 82 | 189 | 0.0 | 2.0 | 0.00 | 0.01 | 0.01 | 83 | 1018.2 |
| 20260901003452 | 82 | 189 | 0.0 | 2.0 | 0.00 | 0.01 | 0.01 | 82 | 1018.2 |
| 20260901002445 | 83 | 189 | 1.0 | 5.0 | 0.00 | 0.01 | 0.01 | 82 | 1018.2 |
| 20260901001947 | 83 | 189 | 0.0 | 3.0 | 0.00 | 0.02 | 0.01 | 82 | 1018.1 |
| 20260901000944 | 83 | 189 | 0.0 | 1.0 | 0.00 | 0.02 | 0.01 | 81 | 1018.0 |
| 20260901000443 | 83 | 189 | 0.0 | 3.0 | 0.00 | 0.02 | 0.01 | 81 | 1018.0 |
| 20260831235939 | 83 | 189 | 1.0 | 3.0 | 0.00 | 0.02 | 0.01 | 81 | 1018.0 |
| 20260831235439 | 84 | 190 | 1.0 | 3.0 | 0.00 | 0.02 | 0.01 | 81 | 1018.0 |
| 20260831234938 | 84 | 190 | 1.0 | 3.0 | 0.00 | 0.03 | 0.01 | 81 | 1017.9 |
| 20260831234443 | 84 | 190 | 1.0 | 3.0 | 0.00 | 0.03 | 0.01 | 81 | 1017.9 |
| 20260831233937 | 85 | 190 | 1.0 | 3.0 | 0.00 | 0.03 | 0.01 | 81 | 1017.8 |
| 20260831233438 | 85 | 191 | 1.0 | 3.0 | 0.00 | 0.04 | 0.01 | 81 | 1017.9 |
| 20260831232935 | 85 | 191 | 1.0 | 3.0 | 0.00 | 0.04 | 0.01 | 80 | 1017.8 |
| 20260831232435 | 85 | 191 | 1.0 | 3.0 | 0.00 | 0.04 | 0.01 | 80 | 1017.8 |
| 20260831230432 | 87 | 191 | 1.0 | 4.0 | 0.00 | 0.05 | 0.01 | 76 | 1017.6 |
| 20260831225930 | 87 | 191 | 1.0 | 4.0 | 0.00 | 0.05 | 0.01 | 76 | 1017.7 |
| 20260831225429 | 87 | 191 | 1.0 | 3.0 | 0.00 | 0.05 | 0.01 | 75 | 1017.6 |
| 20260831224929 | 88 | 191 | 2.0 | 6.0 | 0.00 | 0.06 | 0.01 | 74 | 1017.7 |
| 20260831224423 | 88 | 191 | 2.0 | 6.0 | 0.00 | 0.06 | 0.01 | 74 | 1017.7 |
| 20260831223922 | 88 | 127 | 2.0 | 5.0 | 0.00 | 0.06 | 0.01 | 74 | 1017.7 |
| 20260831223422 | 88 | 75 | 2.0 | 5.0 | 0.00 | 0.06 | 0.01 | 74 | 1017.6 |
| 20260831222421 | 87 | 169 | 2.0 | 4.0 | 0.00 | 0.07 | 0.01 | 75 | 1017.6 |
| 20260831221918 | 87 | 169 | 2.0 | 4.0 | 0.00 | 0.07 | 0.01 | 76 | 1017.5 |
| 20260831221422 | 86 | 169 | 2.0 | 3.0 | 0.00 | 0.07 | 0.01 | 77 | 1017.4 |
| 20260831220919 | 86 | 169 | 2.0 | 3.0 | 0.00 | 0.07 | 0.01 | 78 | 1017.4 |
| 20260831220415 | 86 | 169 | 2.0 | 3.0 | 0.00 | 0.07 | 0.01 | 77 | 1017.5 |
| 20260831215918 | 86 | 169 | 1.0 | 3.0 | 0.00 | 0.08 | 0.01 | 77 | 1017.6 |
| 20260831215414 | 86 | 169 | 0.0 | 3.0 | 0.00 | 0.08 | 0.01 | 76 | 1017.6 |
| 20260831214914 | 87 | 169 | 1.0 | 3.0 | 0.00 | 0.09 | 0.01 | 76 | 1017.6 |
| 20260831214413 | 87 | 169 | 1.0 | 3.0 | 0.00 | 0.09 | 0.01 | 75 | 1017.6 |
| 20260831213912 | 87 | 169 | 2.0 | 5.0 | 0.00 | 0.09 | 0.01 | 74 | 1017.6 |
| 20260831213414 | 88 | 169 | 2.0 | 6.0 | 0.00 | 0.09 | 0.01 | 73 | 1017.6 |
| 20260831212901 | 89 | 178 | 2.0 | 6.0 | 0.00 | 0.09 | 0.01 | 71 | 1017.6 |
| 20260831212402 | 90 | 142 | 3.0 | 9.0 | 0.00 | 0.09 | 0.01 | 69 | 1017.6 |
| 20260831211901 | 91 | 98 | 3.0 | 9.0 | 0.00 | 0.10 | 0.01 | 68 | 1017.6 |
| 20260831211401 | 91 | 77 | 3.0 | 7.0 | 0.00 | 0.10 | 0.01 | 66 | 1017.6 |
| 20260831210902 | 90 | 16 | 3.0 | 10.0 | 0.00 | 0.10 | 0.01 | 68 | 1017.5 |
| 20260831210401 | 90 | 56 | 3.0 | 10.0 | 0.00 | 0.10 | 0.01 | 65 | 1017.5 |
| 20260831205901 | 91 | 14 | 2.0 | 6.0 | 0.00 | 0.10 | 0.01 | 69 | 1017.4 |
| 20260831205401 | 89 | 21 | 0.0 | 3.0 | 0.00 | 0.10 | 0.01 | 72 | 1017.4 |
| 20260831204902 | 89 | 21 | 0.0 | 0.0 | 0.00 | 0.10 | 0.01 | 73 | 1017.4 |
| 20260831204402 | 87 | 21 | 0.0 | 0.0 | 0.00 | 0.10 | 0.01 | 74 | 1017.3 |
| 20260831203901 | 87 | 21 | 0.0 | 1.0 | 0.00 | 0.10 | 0.01 | 76 | 1017.4 |
| 20260831203403 | 87 | 21 | 1.0 | 3.0 | 0.00 | 0.10 | 0.01 | 76 | 1017.4 |
| 20260831202900 | 87 | 21 | 1.0 | 3.0 | 0.00 | 0.10 | 0.01 | 74 | 1017.5 |
| 20260831202359 | 88 | 21 | 2.0 | 4.0 | 0.00 | 0.10 | 0.01 | 73 | 1017.6 |
| 20260831201902 | 88 | 21 | 2.0 | 4.0 | 0.00 | 0.10 | 0.01 | 68 | 1017.6 |
| 20260831200900 | 89 | 21 | 4.0 | 6.0 | 0.00 | 0.10 | 0.01 | 65 | 1017.5 |
| 20260831200407 | 90 | 19 | 4.0 | 10.0 | 0.00 | 0.10 | 0.01 | 63 | 1017.7 |
| 20260831195909 | 91 | 15 | 3.0 | 10.0 | 0.00 | 0.10 | 0.01 | 62 | 1017.7 |
| 20260831195403 | 92 | 295 | 1.0 | 7.0 | 0.00 | 0.10 | 0.01 | 60 | 1017.6 |
| 20260831194900 | 92 | 56 | 1.0 | 5.0 | 0.00 | 0.10 | 0.01 | 60 | 1017.6 |
| 20260831194356 | 89 | 56 | 2.0 | 5.0 | 0.00 | 0.10 | 0.01 | 70 | 1017.7 |
| 20260831193355 | 89 | 56 | 2.0 | 5.0 | 0.00 | 0.10 | 0.01 | 65 | 1017.9 |
| 20260831192855 | 89 | 56 | 2.0 | 5.0 | 0.00 | 0.10 | 0.01 | 65 | 1017.9 |
| 20260831192355 | 89 | 56 | 2.0 | 5.0 | 0.00 | 0.10 | 0.01 | 66 | 1018.0 |
| 20260831191852 | 89 | 56 | 3.0 | 9.0 | 0.00 | 0.10 | 0.01 | 65 | 1018.1 |
| 20260831190852 | 90 | 19 | 6.0 | 11.0 | 0.00 | 0.10 | 0.01 | 64 | 1018.1 |
| 20260831190349 | 90 | 342 | 5.0 | 11.0 | 0.00 | 0.10 | 0.01 | 63 | 1018.1 |
| 20260831185849 | 91 | 65 | 4.0 | 9.0 | 0.00 | 0.10 | 0.01 | 64 | 1018.1 |
| 20260831184848 | 90 | 50 | 4.0 | 7.0 | 0.00 | 0.10 | 0.01 | 64 | 1018.4 |
| 20260831184349 | 89 | 29 | 3.0 | 9.0 | 0.00 | 0.10 | 0.01 | 66 | 1018.5 |
| 20260831183847 | 90 | 40 | 3.0 | 9.0 | 0.00 | 0.10 | 0.01 | 63 | 1018.5 |
| 20260831183348 | 91 | 53 | 3.0 | 8.0 | 0.00 | 0.10 | 0.01 | 63 | 1018.7 |
| 20260831182849 | 90 | 356 | 4.0 | 9.0 | 0.00 | 0.10 | 0.01 | 65 | 1018.7 |
| 20260831182348 | 89 | 356 | 5.0 | 9.0 | 0.00 | 0.10 | 0.01 | 66 | 1018.8 |
| 20260831181352 | 91 | 16 | 3.0 | 7.0 | 0.00 | 0.10 | 0.01 | 63 | 1018.9 |
| 20260831180850 | 90 | 98 | 3.0 | 6.0 | 0.00 | 0.10 | 0.01 | 65 | 1019.0 |
| 20260831180348 | 89 | 73 | 2.0 | 6.0 | 0.00 | 0.10 | 0.01 | 67 | 1019.0 |
| 20260831175846 | 88 | 63 | 2.0 | 8.0 | 0.00 | 0.10 | 0.01 | 68 | 1019.0 |
| 20260831175343 | 88 | 63 | 4.0 | 8.0 | 0.00 | 0.10 | 0.01 | 69 | 1019.2 |
| 20260831174842 | 88 | 60 | 5.0 | 11.0 | 0.00 | 0.10 | 0.01 | 71 | 1019.2 |
| 20260831174340 | 89 | 60 | 4.0 | 11.0 | 0.00 | 0.10 | 0.01 | 67 | 1019.2 |
| 20260831173337 | 89 | 0 | 3.0 | 7.0 | 0.00 | 0.10 | 0.01 | 68 | 1019.5 |
| 20260831172835 | 89 | 46 | 2.0 | 6.0 | 0.00 | 0.10 | 0.01 | 68 | 1019.5 |
| 20260831172332 | 88 | 54 | 3.0 | 12.0 | 0.00 | 0.10 | 0.01 | 70 | 1019.6 |
| 20260831171330 | 87 | 1 | 2.0 | 9.0 | 0.00 | 0.10 | 0.01 | 70 | 1019.7 |
| 20260831170830 | 88 | 309 | 2.0 | 5.0 | 0.00 | 0.10 | 0.01 | 73 | 1019.8 |
| 20260831170325 | 87 | 18 | 2.0 | 8.0 | 0.00 | 0.10 | 0.01 | 75 | 1019.8 |
| 20260831165828 | 87 | 18 | 4.0 | 9.0 | 0.00 | 0.10 | 0.01 | 73 | 1019.9 |
| 20260831165326 | 87 | 73 | 4.0 | 9.0 | 0.00 | 0.10 | 0.01 | 72 | 1019.8 |
| 20260831164824 | 86 | 356 | 4.0 | 9.0 | 0.00 | 0.10 | 0.01 | 74 | 1019.9 |
| 20260831164322 | 87 | 37 | 5.0 | 9.0 | 0.00 | 0.10 | 0.01 | 75 | 1019.9 |
| 20260831163819 | 87 | 335 | 5.0 | 10.0 | 0.00 | 0.10 | 0.01 | 73 | 1019.9 |
| 20260831163319 | 88 | 341 | 4.0 | 10.0 | 0.00 | 0.10 | 0.01 | 75 | 1019.9 |
| 20260831162822 | 87 | 69 | 2.0 | 7.0 | 0.00 | 0.10 | 0.01 | 75 | 1020.0 |
| 20260831162319 | 87 | 50 | 2.0 | 4.0 | 0.00 | 0.10 | 0.01 | 73 | 1020.0 |
| 20260831161319 | 86 | 48 | 3.0 | 5.0 | 0.00 | 0.10 | 0.01 | 76 | 1020.4 |
| 20260831160819 | 86 | 48 | 3.0 | 5.0 | 0.00 | 0.10 | 0.01 | 79 | 1020.5 |
| 20260831160320 | 85 | 43 | 3.0 | 6.0 | 0.00 | 0.10 | 0.01 | 78 | 1020.6 |
| 20260831155814 | 85 | 42 | 3.0 | 8.0 | 0.00 | 0.10 | 0.01 | 78 | 1020.7 |
| 20260831155308 | 86 | 67 | 3.0 | 8.0 | 0.00 | 0.10 | 0.01 | 78 | 1020.7 |
| 20260831154805 | 86 | 346 | 3.0 | 5.0 | 0.00 | 0.10 | 0.01 | 76 | 1020.7 |
| 20260831154308 | 85 | 356 | 3.0 | 6.0 | 0.00 | 0.10 | 0.01 | 82 | 1020.8 |
| 20260831153808 | 85 | 356 | 4.0 | 11.0 | 0.00 | 0.10 | 0.01 | 79 | 1020.7 |
| 20260831153308 | 86 | 23 | 5.0 | 11.0 | 0.00 | 0.10 | 0.01 | 79 | 1020.7 |
| 20260831152817 | 86 | 14 | 3.0 | 9.0 | 0.00 | 0.10 | 0.01 | 78 | 1020.7 |
| 20260831152310 | 85 | 20 | 2.0 | 5.0 | 0.00 | 0.10 | 0.01 | 81 | 1020.6 |
| 20260831151803 | 84 | 16 | 2.0 | 5.0 | 0.00 | 0.10 | 0.01 | 81 | 1020.6 |
| 20260831150803 | 83 | 16 | 3.0 | 5.0 | 0.00 | 0.10 | 0.01 | 84 | 1020.6 |
| 20260831150303 | 83 | 8 | 2.0 | 5.0 | 0.00 | 0.10 | 0.01 | 84 | 1020.5 |
| 20260831145803 | 83 | 8 | 2.0 | 5.0 | 0.00 | 0.10 | 0.01 | 87 | 1020.4 |
| 20260831145306 | 82 | 8 | 2.0 | 7.0 | 0.00 | 0.10 | 0.01 | 86 | 1020.4 |
| 20260831144805 | 82 | 8 | 3.0 | 7.0 | 0.00 | 0.10 | 0.01 | 86 | 1020.3 |
| 20260831144309 | 82 | 13 | 3.0 | 6.0 | 0.00 | 0.10 | 0.01 | 87 | 1020.3 |
| 20260831143757 | 82 | 11 | 3.0 | 5.0 | 0.00 | 0.10 | 0.01 | 89 | 1020.3 |
| 20260831143253 | 81 | 10 | 3.0 | 5.0 | 0.00 | 0.10 | 0.01 | 90 | 1020.3 |
| 20260831142744 | 81 | 24 | 3.0 | 6.0 | 0.00 | 0.10 | 0.01 | 90 | 1020.3 |
| 20260831142241 | 81 | 24 | 3.0 | 6.0 | 0.00 | 0.10 | 0.01 | 91 | 1020.3 |
| 20260831141238 | 80 | 15 | 3.0 | 8.0 | 0.00 | 0.10 | 0.01 | 92 | 1020.1 |
| 20260831140235 | 80 | 25 | 4.0 | 6.0 | 0.00 | 0.10 | 0.01 | 93 | 1020.1 |
| 20260831135731 | 80 | 20 | 3.0 | 5.0 | 0.00 | 0.10 | 0.01 | 94 | 1020.1 |
| 20260831135231 | 80 | 10 | 3.0 | 5.0 | 0.00 | 0.10 | 0.01 | 95 | 1020.1 |
| 20260831134733 | 79 | 58 | 4.0 | 8.0 | 0.00 | 0.10 | 0.01 | 96 | 1020.1 |
| 20260831134239 | 79 | 57 | 4.0 | 9.0 | 0.00 | 0.10 | 0.01 | 96 | 1020.1 |
| 20260831133735 | 79 | 45 | 4.0 | 9.0 | 0.00 | 0.10 | 0.01 | 96 | 1020.1 |
| 20260831133237 | 78 | 48 | 4.0 | 9.0 | 0.00 | 0.10 | 0.01 | 96 | 1020.1 |
| 20260831132733 | 79 | 42 | 4.0 | 8.0 | 0.00 | 0.10 | 0.01 | 96 | 1020.3 |
| 20260831132232 | 78 | 67 | 5.0 | 8.0 | 0.00 | 0.10 | 0.01 | 97 | 1020.4 |
| 20260831131732 | 78 | 63 | 4.0 | 8.0 | 0.00 | 0.10 | 0.01 | 96 | 1020.3 |
| 20260831131231 | 78 | 42 | 3.0 | 6.0 | 0.00 | 0.10 | 0.01 | 97 | 1020.3 |
| 20260831130733 | 78 | 40 | 3.0 | 8.0 | 0.00 | 0.10 | 0.01 | 97 | 1020.3 |
| 20260831130229 | 77 | 62 | 3.0 | 8.0 | 0.00 | 0.10 | 0.01 | 97 | 1020.3 |
| 20260831124729 | 77 | 22 | 3.0 | 6.0 | 0.00 | 0.10 | 0.01 | 97 | 1020.0 |
| 20260831124230 | 77 | 28 | 3.0 | 6.0 | 0.00 | 0.10 | 0.01 | 97 | 1020.0 |
| 20260831123730 | 77 | 25 | 2.0 | 6.0 | 0.00 | 0.10 | 0.01 | 97 | 1020.0 |
| 20260831123228 | 76 | 21 | 3.0 | 6.0 | 0.00 | 0.10 | 0.01 | 97 | 1020.0 |
| 20260831122731 | 76 | 21 | 3.0 | 6.0 | 0.00 | 0.10 | 0.01 | 97 | 1019.9 |
| 20260831122234 | 76 | 23 | 2.0 | 6.0 | 0.00 | 0.10 | 0.01 | 97 | 1019.9 |
| 20260831121231 | 76 | 23 | 2.0 | 5.0 | 0.00 | 0.10 | 0.01 | 97 | 1019.8 |
| 20260831120729 | 75 | 23 | 2.0 | 5.0 | 0.00 | 0.10 | 0.01 | 97 | 1019.7 |
| 20260831120226 | 75 | 22 | 2.0 | 5.0 | 0.00 | 0.10 | 0.01 | 97 | 1019.6 |
| 20260831115723 | 75 | 8 | 2.0 | 5.0 | 0.00 | 0.10 | 0.01 | 97 | 1019.7 |
| 20260831115223 | 75 | 6 | 2.0 | 4.0 | 0.00 | 0.10 | 0.01 | 97 | 1019.6 |
| 20260831114721 | 75 | 29 | 2.0 | 4.0 | 0.00 | 0.10 | 0.01 | 97 | 1019.5 |
| 20260831114222 | 75 | 35 | 2.0 | 4.0 | 0.00 | 0.10 | 0.01 | 97 | 1019.5 |
| 20260831113721 | 75 | 35 | 2.0 | 4.0 | 0.00 | 0.10 | 0.01 | 97 | 1019.4 |
| 20260831113220 | 75 | 35 | 2.0 | 5.0 | 0.00 | 0.10 | 0.01 | 97 | 1019.3 |
| 20260831112721 | 74 | 35 | 2.0 | 5.0 | 0.00 | 0.10 | 0.01 | 97 | 1019.3 |
| 20260831112223 | 74 | 73 | 2.0 | 5.0 | 0.00 | 0.10 | 0.01 | 97 | 1019.3 |
| 20260831111720 | 74 | 111 | 2.0 | 4.0 | 0.00 | 0.10 | 0.01 | 97 | 1019.3 |
| 20260831111222 | 74 | 111 | 2.0 | 4.0 | 0.00 | 0.10 | 0.01 | 97 | 1019.2 |
| 20260831110723 | 74 | 111 | 2.0 | 4.0 | 0.00 | 0.10 | 0.01 | 97 | 1019.2 |
| 20260831110220 | 74 | 111 | 2.0 | 5.0 | 0.00 | 0.10 | 0.01 | 97 | 1019.2 |
| 20260831105717 | 74 | 111 | 2.0 | 5.0 | 0.00 | 0.10 | 0.01 | 97 | 1019.1 |
| 20260831105218 | 74 | 123 | 1.0 | 4.0 | 0.00 | 0.10 | 0.01 | 96 | 1019.1 |
| 20260831104715 | 74 | 123 | 1.0 | 2.0 | 0.00 | 0.10 | 0.01 | 96 | 1019.1 |
| 20260831103714 | 74 | 123 | 1.0 | 3.0 | 0.00 | 0.10 | 0.01 | 97 | 1019.0 |
| 20260831103216 | 74 | 123 | 1.0 | 3.0 | 0.00 | 0.10 | 0.01 | 96 | 1019.0 |
| 20260831102715 | 74 | 123 | 2.0 | 3.0 | 0.00 | 0.10 | 0.01 | 96 | 1018.9 |
| 20260831102215 | 74 | 123 | 2.0 | 3.0 | 0.00 | 0.10 | 0.01 | 96 | 1018.9 |
| 20260831101214 | 74 | 123 | 1.0 | 3.0 | 0.00 | 0.10 | 0.01 | 96 | 1018.9 |
| 20260831100713 | 74 | 123 | 1.0 | 3.0 | 0.00 | 0.10 | 0.01 | 96 | 1018.8 |
| 20260831100212 | 74 | 123 | 2.0 | 3.0 | 0.00 | 0.10 | 0.01 | 96 | 1018.8 |
| 20260831095708 | 74 | 123 | 2.0 | 4.0 | 0.00 | 0.10 | 0.01 | 96 | 1018.7 |
| 20260831094709 | 75 | 123 | 2.0 | 3.0 | 0.00 | 0.10 | 0.01 | 96 | 1018.5 |
| 20260831094210 | 75 | 123 | 1.0 | 3.0 | 0.00 | 0.10 | 0.01 | 96 | 1018.5 |
| 20260831093710 | 75 | 123 | 1.0 | 3.0 | 0.00 | 0.10 | 0.01 | 96 | 1018.5 |
| 20260831093209 | 75 | 123 | 1.0 | 2.0 | 0.00 | 0.10 | 0.01 | 96 | 1018.5 |
| 20260831092708 | 75 | 123 | 1.0 | 2.0 | 0.00 | 0.10 | 0.01 | 96 | 1018.5 |
| 20260831092208 | 75 | 123 | 1.0 | 2.0 | 0.00 | 0.10 | 0.01 | 96 | 1018.6 |
| 20260831091707 | 75 | 123 | 1.0 | 3.0 | 0.00 | 0.10 | 0.01 | 96 | 1018.6 |
| 20260831091206 | 75 | 123 | 1.0 | 3.0 | 0.00 | 0.10 | 0.01 | 96 | 1018.6 |
| 20260831090207 | 75 | 123 | 2.0 | 4.0 | 0.00 | 0.10 | 0.01 | 96 | 1018.5 |
| 20260831085206 | 75 | 123 | 1.0 | 3.0 | 0.00 | 0.10 | 0.01 | 96 | 1018.6 |
| 20260831084707 | 75 | 123 | 2.0 | 3.0 | 0.00 | 0.10 | 0.01 | 96 | 1018.7 |
| 20260831083708 | 75 | 123 | 2.0 | 3.0 | 0.00 | 0.10 | 0.01 | 96 | 1018.6 |
| 20260831083206 | 75 | 123 | 2.0 | 5.0 | 0.00 | 0.10 | 0.01 | 96 | 1018.6 |
| 20260831082706 | 75 | 123 | 2.0 | 5.0 | 0.00 | 0.10 | 0.01 | 96 | 1018.8 |
| 20260831082204 | 75 | 125 | 2.0 | 5.0 | 0.01 | 0.10 | 0.01 | 96 | 1018.8 |
| 20260831081203 | 75 | 162 | 1.0 | 4.0 | 0.01 | 0.10 | 0.01 | 96 | 1018.8 |
| 20260831080702 | 75 | 162 | 0.0 | 4.0 | 0.01 | 0.10 | 0.01 | 96 | 1018.8 |
| 20260831080203 | 75 | 161 | 0.0 | 0.0 | 0.01 | 0.10 | 0.01 | 96 | 1018.9 |
| 20260831075204 | 75 | 161 | 0.0 | 1.0 | 0.01 | 0.10 | 0.01 | 96 | 1018.9 |
| 20260831074203 | 75 | 161 | 1.0 | 4.0 | 0.01 | 0.10 | 0.01 | 96 | 1018.9 |
| 20260831073705 | 75 | 161 | 1.0 | 4.0 | 0.01 | 0.10 | 0.01 | 96 | 1018.9 |
| 20260831073210 | 75 | 161 | 1.0 | 4.0 | 0.01 | 0.10 | 0.01 | 96 | 1018.9 |
| 20260831072707 | 75 | 161 | 1.0 | 4.0 | 0.01 | 0.10 | 0.01 | 96 | 1018.8 |
| 20260831072209 | 75 | 161 | 1.0 | 4.0 | 0.00 | 0.09 | 0.00 | 96 | 1018.9 |
| 20260831071209 | 75 | 162 | 1.0 | 4.0 | 0.00 | 0.09 | 0.00 | 96 | 1018.8 |
| 20260831070704 | 75 | 162 | 1.0 | 4.0 | 0.00 | 0.09 | 0.00 | 96 | 1018.7 |
| 20260831070202 | 75 | 162 | 2.0 | 4.0 | 0.00 | 0.09 | 0.00 | 96 | 1018.8 |
| 20260831065700 | 74 | 162 | 1.0 | 4.0 | 0.00 | 0.09 | 0.00 | 96 | 1018.8 |
| 20260831065202 | 74 | 162 | 1.0 | 2.0 | 0.00 | 0.09 | 0.00 | 96 | 1018.8 |
| 20260831064704 | 74 | 162 | 0.0 | 2.0 | 0.00 | 0.09 | 0.00 | 96 | 1018.6 |
| 20260831064202 | 75 | 162 | 0.0 | 1.0 | 0.00 | 0.09 | 0.00 | 96 | 1018.7 |
| 20260831063200 | 75 | 162 | 0.0 | 1.0 | 0.00 | 0.09 | 0.00 | 96 | 1018.8 |
| 20260831062703 | 75 | 162 | 0.0 | 1.0 | 0.00 | 0.09 | 0.00 | 96 | 1018.7 |
| 20260831062201 | 75 | 162 | 0.0 | 0.0 | 0.00 | 0.09 | 0.00 | 96 | 1018.8 |
| 20260831061701 | 75 | 162 | 0.0 | 0.0 | 0.00 | 0.09 | 0.00 | 96 | 1018.8 |
| 20260831061201 | 75 | 162 | 0.0 | 0.0 | 0.00 | 0.09 | 0.00 | 96 | 1018.7 |
| 20260831060702 | 75 | 162 | 0.0 | 0.0 | 0.00 | 0.09 | 0.00 | 96 | 1018.8 |
| 20260831060201 | 75 | 162 | 0.0 | 0.0 | 0.00 | 0.09 | 0.00 | 96 | 1018.7 |
| 20260831055659 | 75 | 162 | 0.0 | 0.0 | 0.00 | 0.09 | 0.00 | 96 | 1018.7 |
| 20260831055155 | 75 | 162 | 0.0 | 0.0 | 0.00 | 0.09 | 0.00 | 95 | 1018.8 |
| 20260831054653 | 75 | 162 | 0.0 | 0.0 | 0.00 | 0.09 | 0.00 | 95 | 1018.8 |
| 20260831054151 | 75 | 162 | 0.0 | 0.0 | 0.00 | 0.09 | 0.00 | 96 | 1018.9 |
| 20260831053652 | 75 | 162 | 0.0 | 0.0 | 0.00 | 0.09 | 0.00 | 95 | 1018.9 |
| 20260831053155 | 75 | 162 | 0.0 | 0.0 | 0.00 | 0.09 | 0.00 | 95 | 1018.9 |
| 20260831052648 | 75 | 162 | 0.0 | 0.0 | 0.00 | 0.09 | 0.00 | 95 | 1018.8 |
| 20260831052144 | 75 | 162 | 0.0 | 0.0 | 0.00 | 0.09 | 0.00 | 95 | 1018.8 |
| 20260831051646 | 75 | 162 | 0.0 | 0.0 | 0.00 | 0.09 | 0.00 | 95 | 1018.9 |
| 20260831050641 | 75 | 162 | 0.0 | 0.0 | 0.00 | 0.09 | 0.00 | 95 | 1018.9 |
| 20260831050138 | 75 | 162 | 0.0 | 0.0 | 0.00 | 0.09 | 0.00 | 95 | 1019.0 |
| 20260831045638 | 75 | 162 | 0.0 | 0.0 | 0.00 | 0.09 | 0.00 | 95 | 1019.0 |
| 20260831044633 | 75 | 162 | 0.0 | 0.0 | 0.00 | 0.09 | 0.00 | 95 | 1019.1 |
| 20260831043630 | 75 | 162 | 0.0 | 0.0 | 0.00 | 0.09 | 0.00 | 95 | 1019.1 |
| 20260831043133 | 75 | 162 | 0.0 | 0.0 | 0.00 | 0.09 | 0.00 | 95 | 1019.1 |
| 20260831042635 | 75 | 162 | 0.0 | 0.0 | 0.00 | 0.09 | 0.00 | 95 | 1019.2 |
| 20260831042129 | 76 | 162 | 0.0 | 0.0 | 0.00 | 0.09 | 0.00 | 95 | 1019.2 |
| 20260831035629 | 76 | 162 | 0.0 | 0.0 | 0.00 | 0.09 | 0.09 | 95 | 1019.2 |
| 20260831035130 | 76 | 162 | 0.0 | 0.0 | 0.00 | 0.09 | 0.09 | 95 | 1019.3 |
| 20260831034629 | 76 | 162 | 0.0 | 0.0 | 0.00 | 0.09 | 0.09 | 95 | 1019.3 |
| 20260831033630 | 76 | 162 | 0.0 | 0.0 | 0.00 | 0.09 | 0.09 | 95 | 1019.3 |
| 20260831033126 | 76 | 162 | 0.0 | 0.0 | 0.00 | 0.09 | 0.09 | 95 | 1019.4 |
| 20260831032627 | 76 | 162 | 0.0 | 0.0 | 0.00 | 0.09 | 0.09 | 95 | 1019.5 |
| 20260831032126 | 76 | 162 | 0.0 | 0.0 | 0.00 | 0.09 | 0.09 | 95 | 1019.6 |
| 20260831031624 | 77 | 162 | 0.0 | 0.0 | 0.00 | 0.09 | 0.09 | 95 | 1019.6 |
| 20260831031125 | 77 | 162 | 0.0 | 0.0 | 0.00 | 0.09 | 0.09 | 95 | 1019.6 |
| 20260831030125 | 77 | 162 | 0.0 | 0.0 | 0.00 | 0.09 | 0.09 | 95 | 1019.6 |
| 20260831025124 | 77 | 162 | 0.0 | 0.0 | 0.00 | 0.09 | 0.09 | 95 | 1019.5 |
| 20260831024625 | 77 | 162 | 0.0 | 0.0 | 0.00 | 0.09 | 0.09 | 95 | 1019.5 |
| 20260831024129 | 77 | 162 | 0.0 | 0.0 | 0.00 | 0.09 | 0.09 | 95 | 1019.5 |
| 20260831023130 | 77 | 162 | 0.0 | 0.0 | 0.00 | 0.09 | 0.09 | 95 | 1019.5 |
| 20260831022628 | 77 | 162 | 0.0 | 0.0 | 0.00 | 0.09 | 0.09 | 95 | 1019.6 |